Content
SEND FEEDBACK

Daily
Averages
Monthly
Summary
Mexico

CANCUN, QUINTANA ROO


Home > North America > Mexico > Quintana Roo
Elevation: 9 meters     Latitude: 21 09N     Longitude: 086 49W

WEATHER
 
SELECT A DAY
Number of Records: 166,401;   Date Range: 1/1/95 - 10/22/14
 
SHARE

PRINT THIS DATA

[ ← Previous Day ]
WEATHER ALMANAC - 1 NOVEMBER, 2013
[ Next Day → ]
[ °F ]   °C
Weather ElementAverageHighLow
Temperature27.3 °C30 °C (8:45 am)24 °C (5:43 am)
Dewpoint24.3 °C25 °C (1:45 am)24 °C (2:43 am)
Humidity84.4 %100 % (5:43 am)70 % (8:45 am)
Barometer1012.9 hPa1014.6 hPa (9:43 am)1011.2 hPa (3:42 pm)
Wind Speed8.2 km/h18.5 km/h (12:41 pm)
Weather ElementAverage
Visibility11.3 km
Wind DirectionE (94.8 °)

Weather ElementTotal
Precipitation---
Cooling Degree Days8.7 (Base 18.3)
Growing Degree Days17 (Base 10)
Averaged from 23 records on 1 November, 2013
WEATHER CONDITIONS BREAKOUT
WIND DIRECTION BREAKOUT
WEATHER BY HOUR - 1 NOVEMBER, 2013
[ °F ]   °C
Local TimeTemperatureDewpointHumidityBarometerVisibilityWind DirectionWind SpeedGust SpeedPrecipitationEventsConditions
1:45 AM27 °C25 °C89 %1012.5 hPa11.3 kmESE (120°)13 km/hScattered Clouds
2:43 AM27 °C24 °C84 %1012.2 hPa11.3 kmSE (130°)11.1 km/hPartly Cloudy
3:45 AM26 °C24 °C89 %1012.5 hPa11.3 kmSE (130°)3.7 km/hPartly Cloudy
4:40 AM25 °C24 °C94 %1012.9 hPa11.3 kmCalmPartly Cloudy
5:43 AM24 °C24 °C100 %1013.2 hPa11.3 kmCalmScattered Clouds
6:41 AM25 °C24 °C94 %1013.9 hPa11.3 kmCalmScattered Clouds
7:43 AM29 °C25 °C79 %1014.2 hPa11.3 kmESE (120°)11.1 km/hScattered Clouds
8:45 AM30 °C24 °C70 %1014.2 hPa11.3 kmSE (140°)7.4 km/hScattered Clouds
9:43 AM30 °C25 °C74 %1014.6 hPa11.3 kmSE (140°)14.8 km/hMostly Cloudy
10:40 AM30 °C24 °C70 %1014.2 hPa11.3 kmSE (140°)13 km/hMostly Cloudy
11:45 AM30 °C25 °C74 %1013.5 hPa11.3 kmESE (120°)13 km/hMostly Cloudy
12:41 PM30 °C24 °C70 %1012.2 hPa11.3 kmSE (140°)18.5 km/hMostly Cloudy
1:43 PM30 °C25 °C74 %1011.5 hPa11.3 kmESE (120°)14.8 km/hMostly Cloudy
2:45 PM30 °C24 °C70 %1011.5 hPa11.3 kmSE (130°)16.7 km/hMostly Cloudy
3:42 PM29 °C24 °C74 %1011.2 hPa11.3 kmSE (140°)11.1 km/hMostly Cloudy
4:44 PM28 °C25 °C84 %1011.2 hPa11.3 kmESE (110°)7.4 km/hMostly Cloudy
5:47 PM27 °C25 °C89 %1011.9 hPa11.3 kmSE (130°)3.7 km/hMostly Cloudy
6:44 PM25 °C24 °C94 %1012.5 hPa11.3 kmCalmScattered Clouds
7:41 PM25 °C24 °C94 %1013.2 hPa11.3 kmCalmPartly Cloudy
8:48 PM25 °C24 °C94 %1013.5 hPa11.3 kmCalmScattered Clouds
9:48 PM25 °C24 °C94 %1013.9 hPa11.3 kmESE (120°)9.3 km/hScattered Clouds
10:47 PM25 °C24 °C94 %1013.5 hPa11.3 kmESE (120°)9.3 km/hScattered Clouds
11:46 PM25 °C24 °C94 %1012.5 hPa11.3 kmSE (130°)9.3 km/hMostly Cloudy
Hourly data recorded from MMUN, located 0 kilometers away from Cancun, Quintana Roo







STORIES FROM OUR PARTNERS